Location: Oberwangen
(47.4286°N, 8.9679°E)
Time: 07:17:37
(UTC+00:00)

SL-4 R/B - Pass Details

Date: 20 June 2021
Orbit: 428 x 662 km, 51.6° (Epoch: 04 August)

Event Time Altitude Azimuth Distance (km) Brightness Sun altitude
Rises 21:53:23 0° 233° (SW) 2,758 5.4 -16.1°
Reaches altitude 10° 21:55:43 10° 230° (SW) 1,822 4.5 -16.3°
Maximum altitude 21:59:48 62° 150° (SSE) 590 1.8 -16.5°
Drops below altitude 10° 22:03:34 10° 69° (ENE) 1,689 4.5 -16.7°
Sets 22:05:41 0° 66° (ENE) 2,535 5.5 -16.9°
